CW2927 Weather Reports


Display with metric or nautical units.
time (UTC)temp
F
wind
direction
speed
MPH
gust
MPH
rain 1hr
in
rain 24hr
in
rain mn
in
humidity
%
barometer
mb
20260504190705 55 216 4.0 7.0 0.00 0.31 0.31 80 1004.0
20260504190204 54 192 2.0 6.0 0.00 0.31 0.31 80 1003.9
20260504184704 51 258 2.0 3.0 0.00 0.31 0.31 83 1004.2
20260504184205 51 260 3.0 5.0 0.00 0.31 0.31 83 1004.3
20260504182704 50 264 3.0 6.0 0.00 0.31 0.31 82 1004.3
20260504182204 50 279 1.0 7.0 0.00 0.31 0.31 83 1004.3
20260504180704 50 293 4.0 9.0 0.00 0.31 0.31 82 1004.4
20260504180204 50 266 4.0 9.0 0.00 0.31 0.31 82 1004.3
20260504174705 51 253 5.0 10.0 0.00 0.31 0.31 81 1004.3
20260504174204 52 264 5.0 13.0 0.00 0.31 0.31 81 1004.3
20260504172704 52 281 6.0 9.0 0.00 0.31 0.31 83 1004.3
20260504172204 51 290 6.0 14.0 0.00 0.31 0.31 84 1004.2
20260504170704 50 284 5.0 12.0 0.00 0.31 0.31 86 1004.4
20260504170204 50 285 7.0 12.0 0.00 0.31 0.31 89 1004.4
20260504160204 45 239 2.0 3.0 0.00 0.31 0.31 93 1004.3
20260504150704 44 239 1.0 2.0 0.01 0.31 0.31 94 1004.0
20260504140706 42 238 3.0 5.0 0.09 0.30 0.30 93 1003.7
20260504140204 42 211 3.0 5.0 0.10 0.30 0.30 93 1003.6
20260504130704 41 153 0.0 0.0 0.17 0.20 0.20 91 1003.2
20260504130204 41 153 0.0 0.0 0.17 0.20 0.20 91 1003.3
20260504120204 42 153 2.0 3.0 0.03 0.03 0.03 87 1003.3
20260504110704 43 164 2.0 3.0 0.00 0.00 0.00 81 1003.6
20260504110204 42 165 3.0 7.0 0.00 0.00 0.00 80 1003.8
20260504100204 38 168 3.0 6.0 0.00 0.00 0.00 79 1004.1
20260504080703 38 177 3.0 3.0 0.00 0.00 0.00 75 1004.7
20260504080204 38 177 2.0 6.0 0.00 0.00 0.00 75 1004.7
20260504070205 38 177 3.0 5.0 0.00 0.00 0.00 73 1004.6
20260504050705 36 273 1.0 2.0 0.00 0.00 0.00 81 1005.0
20260504050205 36 273 0.0 0.0 0.00 0.00 0.00 80 1005.0
20260504044705 36 273 0.0 0.0 0.00 0.00 0.00 79 1005.2
20260504044205 37 273 0.0 1.0 0.00 0.00 0.00 79 1005.2
20260504042705 37 273 0.0 0.0 0.00 0.00 0.00 79 1005.4
20260504042205 37 273 0.0 1.0 0.00 0.00 0.00 79 1005.4
20260504040705 38 273 0.0 0.0 0.00 0.00 0.00 78 1005.4
20260504040205 38 273 0.0 2.0 0.00 0.00 0.00 77 1005.4
20260504034705 39 273 0.0 0.0 0.00 0.00 0.00 75 1005.4
20260504034205 39 273 0.0 0.0 0.00 0.00 0.00 74 1005.5
20260504032704 39 273 0.0 0.0 0.00 0.00 0.00 73 1005.5
20260504032205 40 273 0.0 0.0 0.00 0.00 0.00 73 1005.5
20260504030705 40 273 0.0 0.0 0.00 0.00 0.00 73 1005.5
20260504030205 40 273 0.0 0.0 0.00 0.00 0.00 73 1005.6
20260504024705 40 273 0.0 1.0 0.00 0.00 0.00 72 1005.6
20260504024205 40 273 0.0 0.0 0.00 0.00 0.00 72 1005.6
20260504022705 41 273 0.0 2.0 0.00 0.00 0.00 71 1005.7
20260504022205 41 273 1.0 2.0 0.00 0.00 0.00 72 1005.7
20260504020705 41 273 0.0 1.0 0.00 0.00 0.00 71 1005.8
20260504020205 41 273 0.0 1.0 0.00 0.00 0.00 70 1005.7
20260504014705 41 273 0.0 0.0 0.00 0.00 0.00 68 1005.8
20260504014205 42 273 0.0 1.0 0.00 0.00 0.00 68 1005.9
20260504012705 42 273 1.0 2.0 0.00 0.00 0.00 67 1005.9
20260504012205 42 273 1.0 3.0 0.00 0.00 0.00 67 1005.9
20260504010705 43 273 0.0 0.0 0.00 0.00 0.00 67 1005.8
20260504010204 43 273 0.0 0.0 0.00 0.00 0.00 65 1005.9
20260504004705 45 273 0.0 0.0 0.00 0.00 0.00 62 1005.7
20260504004204 45 273 0.0 2.0 0.00 0.00 0.00 61 1005.6
20260504002704 46 273 0.0 0.0 0.00 0.00 0.00 59 1005.5
20260504002204 46 273 0.0 2.0 0.00 0.00 0.00 58 1005.5
20260504000704 47 273 1.0 2.0 0.00 0.00 0.00 55 1005.4
20260504000205 48 273 0.0 2.0 0.00 0.00 0.00 54 1005.4
20260503234704 49 273 0.0 0.0 0.00 0.00 0.00 52 1005.5
20260503234204 49 273 0.0 1.0 0.00 0.00 0.00 52 1005.5
20260503232705 50 273 0.0 1.0 0.00 0.00 0.00 49 1005.5
20260503232204 50 273 0.0 2.0 0.00 0.00 0.00 49 1005.5
20260503230705 50 273 1.0 2.0 0.00 0.00 0.00 47 1005.5
20260503230204 50 273 1.0 2.0 0.00 0.00 0.00 47 1005.5
20260503224705 51 273 1.0 2.0 0.00 0.00 0.00 45 1005.6
20260503224204 51 273 2.0 3.0 0.00 0.00 0.00 46 1005.6
20260503222705 50 273 0.0 3.0 0.00 0.00 0.00 47 1005.6
20260503222205 50 273 2.0 5.0 0.00 0.00 0.00 47 1005.6
20260503220704 50 294 1.0 3.0 0.00 0.00 0.00 46 1005.7
20260503220205 50 320 2.0 6.0 0.00 0.00 0.00 48 1005.7
20260503214704 50 299 3.0 5.0 0.00 0.00 0.00 46 1005.7
20260503214205 50 277 1.0 5.0 0.00 0.00 0.00 48 1005.8
20260503212705 50 287 4.0 7.0 0.00 0.01 0.00 47 1005.8
20260503212204 50 292 3.0 7.0 0.00 0.01 0.00 46 1005.9
20260503210704 51 269 1.0 5.0 0.00 0.01 0.00 46 1005.9
20260503210204 51 264 3.0 7.0 0.00 0.01 0.00 46 1005.8
20260503204704 51 276 3.0 5.0 0.00 0.01 0.00 46 1005.9
20260503204204 51 298 3.0 9.0 0.00 0.01 0.00 45 1005.9
20260503202705 51 320 2.0 6.0 0.00 0.01 0.00 48 1005.9
20260503202205 51 311 3.0 8.0 0.00 0.01 0.00 48 1006.0
20260503200704 50 281 3.0 7.0 0.00 0.01 0.00 49 1006.1
20260503200205 50 293 4.0 12.0 0.00 0.01 0.00 49 1006.2
20260503194704 49 255 3.0 10.0 0.00 0.01 0.00 51 1006.2
20260503194205 49 276 2.0 9.0 0.00 0.01 0.00 52 1006.3
20260503192705 49 260 3.0 6.0 0.00 0.01 0.00 51 1006.5
20260503192204 49 276 4.0 12.0 0.00 0.01 0.00 50 1006.5